Location: Chmeln�
(49.6483°N, 14.9871°E)
Time: 02:08:26
(UTC+00:00)

NOSS 3-2 (A) - Pass Details

Date: 18 September 2020
Orbit: 795 x 1413 km, 63.4° (Epoch: 02 October)

Event Time Altitude Azimuth Distance (km) Brightness Sun altitude
Rises 18:09:53 0° 316° (NW) 3,870 7.8 -11.0°
Reaches altitude 10° 18:12:25 10° 319° (NW) 2,996 7.0 -11.4°
Maximum altitude 18:19:41 68° 42° (NE) 1,328 4.1 -12.5°
Enters shadow 18:26:32 16° 124° (ESE) 2,923 5.4 -13.6°
